Main page


Airports :

Syros, Greece

Syros Island National Airport

latitude: 37-25-16N, longitude: 024-56-54E, elevation: 73 m

Current weather observation

The report was made 26 minutes ago, at 05:50 UTC
Wind 15 kt from the West/Southwest
Temperature 15°C
Humidity 55%
Pressure 1007 hPa
Visibility 10 km or more
Few clouds at a height of 1800 ft

METAR: LGSO 200550Z 24015KT 9999 FEW018 15/06 Q1007

Time: 08:16 (06:16 UTC)

TAF: missing

Weather observations and forecasts of more than 4000 airports (METAR and TAF reports).

The available stations are represented by yellow and red dots on the map.

Hover mouse over dot to see the name of the station.

Then click to see weather observations and forecasts.

To change the map : click on the green buttons with a black cross to zoom in, on the green button with a dash to zoom out, or on the green arrows for adjacent maps.